DateTimeUTC,F1_A11,F1_S11,BsB_S11,BsG_S11,BsR_S11,BbsB_S11,BbsG_S11,BbsR_S11,BaB_A11,BaG_A11,BaR_A11,Tu_S11,T_S11,Uu_S11,U_S11,P_S11,T1_A11
2021-07-04T01:00:00Z,00000200,20000000,,,,,,,-000.16,-000.13,0000.10,19.1,25.7,06.9,04.6,0672.2,31.2
2021-07-04T01:01:00Z,00000200,20000000,,,,,,,0000.00,-000.10,-000.11,19.1,25.7,06.9,04.6,0672.2,31.2
2021-07-04T01:02:00Z,00000200,20000000,,,,,,,0000.04,0000.17,0000.15,19.1,25.7,06.9,04.6,0672.2,31.1
2021-07-04T01:03:00Z,00000200,60000000,,,,,,,-000.36,-000.27,-000.24,19.1,25.7,06.9,04.6,0672.2,31.1
2021-07-04T01:04:00Z,00000200,40000000,0000.84,0000.49,0000.19,-000.35,0000.08,-000.11,0000.04,-000.23,-000.07,19.1,25.5,06.7,04.5,0673.1,31.1
2021-07-04T01:05:00Z,00000200,00000000,0000.51,0000.40,0000.47,-000.24,-000.11,0000.09,0000.07,0000.28,-000.08,19.0,25.4,06.6,04.5,0673.2,31.1
2021-07-04T01:06:00Z,00000200,00000000,0000.13,0000.08,0000.44,-000.02,0000.23,0000.26,-000.00,0000.04,0000.12,19.0,25.4,06.6,04.5,0673.2,31.1
2021-07-04T01:07:00Z,00000200,00000000,0000.43,0000.02,0000.15,-000.30,-000.03,-000.10,0000.14,0000.30,0000.22,19.0,25.4,06.6,04.5,0673.2,31.1
2021-07-04T01:08:00Z,00000200,00000000,0000.35,0000.31,0000.29,0000.06,0000.03,0000.20,0000.46,0000.19,0000.06,19.0,25.4,06.6,04.5,0673.2,31.1
2021-07-04T01:09:00Z,00000200,00000000,0000.24,0000.32,0000.34,-000.03,0000.03,0000.13,-000.26,0000.07,-000.21,19.1,25.4,06.5,04.4,0673.2,31.1
2021-07-04T01:10:00Z,00000200,00000000,0000.11,0000.31,0000.32,-000.33,0000.10,0000.32,-000.09,-000.20,0000.47,19.1,25.4,06.5,04.4,0673.2,31.2
2021-07-04T01:11:00Z,00000200,00000000,0000.16,0000.55,0000.61,0000.19,0000.15,0000.11,0000.10,-000.00,-000.46,19.1,25.4,06.5,04.5,0673.2,31.2
2021-07-04T01:12:00Z,00000200,00000000,-000.03,0000.58,0000.55,0000.05,0000.04,0000.12,0000.08,0000.15,0000.16,19.1,25.4,06.5,04.4,0673.2,31.2
2021-07-04T01:13:00Z,00000200,00000000,0000.28,0000.17,0000.43,-000.81,0000.09,0000.30,-000.11,-000.02,0000.19,19.1,25.4,06.5,04.4,0673.2,31.1
2021-07-04T01:14:00Z,00000200,00000000,0000.43,0000.41,0000.15,0000.05,0000.03,-000.14,0000.26,-000.08,0000.05,19.1,25.4,06.3,04.3,0673.2,31.1
2021-07-04T01:15:00Z,00000200,00000000,0000.11,0000.23,0000.34,-000.11,0000.02,-000.04,-000.07,0000.14,-000.12,19.0,25.4,06.3,04.3,0673.2,31.1
2021-07-04T01:16:00Z,00000200,00000000,0001.24,0000.38,0000.36,-000.10,-000.03,0000.36,0000.31,0000.01,-000.09,19.0,25.3,06.4,04.3,0673.2,31.1
2021-07-04T01:17:00Z,00000200,00000000,0000.14,0000.32,0000.09,0000.58,-000.02,0000.17,-000.05,-000.10,0000.19,18.9,25.3,06.2,04.2,0673.2,31.1
2021-07-04T01:18:00Z,00000200,00000000,0000.35,0000.23,0000.19,-000.29,0000.11,-000.03,0000.00,0000.33,-000.14,18.9,25.3,06.3,04.3,0673.2,31.1
2021-07-04T01:19:00Z,00000200,00000000,0000.23,0000.34,-000.03,0000.15,0000.13,-000.17,0000.15,-000.03,-000.00,18.8,25.2,06.3,04.3,0673.2,31.1
2021-07-04T01:20:00Z,00000200,00000000,-000.47,0000.30,0000.29,-000.17,0000.14,0000.01,-000.18,0000.09,0000.31,18.8,25.2,06.3,04.3,0673.2,31.1
2021-07-04T01:21:00Z,00000200,00000000,-000.05,0000.68,0000.15,-000.31,-000.29,0000.19,0000.40,-000.07,0000.12,18.8,25.2,06.3,04.3,0673.2,31.1
2021-07-04T01:22:00Z,00000200,00000000,0000.45,0000.36,0000.20,-000.10,0000.08,0000.20,-000.15,0000.06,-000.09,18.8,25.1,06.2,04.2,0673.2,31.1
2021-07-04T01:23:00Z,00000200,00000000,0000.20,0000.26,0000.08,0000.22,0000.01,0000.26,-000.03,0000.26,-000.05,18.8,25.2,06.2,04.2,0673.2,31.1
2021-07-04T01:24:00Z,00000200,00000000,0000.77,0000.35,0000.09,0000.27,0000.22,0000.15,0000.40,-000.12,0000.24,18.9,25.2,06.3,04.3,0673.2,31.1
2021-07-04T01:25:00Z,00000200,00000000,0000.76,0000.32,0000.15,0000.21,0000.12,0000.08,-000.01,0000.16,0000.06,18.9,25.2,06.3,04.3,0673.2,31.1
2021-07-04T01:26:00Z,00000200,00000000,0000.58,0000.44,0000.14,-000.20,0000.07,-000.16,0000.08,0000.26,0000.45,19.0,25.3,06.3,04.3,0673.2,31.2
2021-07-04T01:27:00Z,00000200,00000000,0000.40,0000.58,0000.51,-000.00,0000.08,0000.25,0000.17,-000.09,-000.11,19.1,25.3,06.3,04.3,0673.2,31.2
2021-07-04T01:28:00Z,00000200,00000000,0000.20,0000.30,0000.23,-000.15,0000.26,0000.11,-000.01,0000.08,-000.03,19.2,25.4,06.2,04.3,0673.2,31.2
2021-07-04T01:29:00Z,00000200,00000000,0000.07,0000.20,0000.23,-000.09,0000.25,0000.33,-000.14,0000.22,-000.39,19.2,25.4,06.1,04.2,0673.2,31.2
2021-07-04T01:30:00Z,00000200,00000000,0001.00,0000.12,0000.30,0000.13,0000.01,0000.38,0000.38,-000.11,0000.35,19.1,25.4,06.2,04.2,0673.2,31.2
2021-07-04T01:31:00Z,00000200,00000000,0000.14,0000.05,0000.36,0000.14,0000.45,0000.27,-000.11,0000.19,-000.04,19.1,25.4,06.1,04.2,0673.2,31.1
2021-07-04T01:32:00Z,00000200,00000000,0000.87,0000.57,0000.22,0000.26,0000.26,0000.04,0000.17,-000.20,0000.07,19.1,25.3,06.1,04.2,0673.2,31.1
2021-07-04T01:33:00Z,00000200,00000000,0000.71,0000.08,0000.30,-000.16,-000.26,0000.20,-000.10,0000.34,-000.03,19.0,25.3,06.1,04.1,0673.2,31.1
2021-07-04T01:34:00Z,00000200,00000000,0000.14,0000.05,0000.24,0000.33,0000.21,0000.43,0000.21,-000.18,0000.30,19.0,25.3,06.1,04.2,0673.2,31.1
2021-07-04T01:35:00Z,00000200,00000000,-000.35,0000.28,0000.14,-000.20,0000.03,-000.16,0000.14,0000.10,0000.30,18.9,25.2,06.1,04.2,0673.1,31.1
2021-07-04T01:36:00Z,00000200,00000000,0000.67,0000.36,0000.37,-000.21,0000.12,0000.24,0000.31,0000.32,0000.00,18.9,25.2,06.2,04.2,0673.1,31.1
2021-07-04T01:37:00Z,00000200,00000000,0000.49,0000.45,0000.35,-000.17,0000.00,0000.23,-000.15,-000.27,-000.29,18.9,25.2,06.2,04.2,0673.1,31.1
2021-07-04T01:38:00Z,00000200,00000000,-000.15,0000.33,0000.25,0000.29,0000.16,0000.06,0000.08,0000.53,0000.19,18.9,25.2,06.1,04.2,0673.1,31.1
2021-07-04T01:39:00Z,00000200,00000000,0000.46,0000.12,0000.42,-000.09,-000.09,0000.04,0000.13,-000.15,0000.24,18.9,25.2,06.2,04.2,0673.1,31.2
2021-07-04T01:40:00Z,00000200,00000000,0000.24,0000.19,0000.62,-000.48,0000.20,0000.03,-000.03,0000.52,0000.03,19.0,25.3,06.0,04.1,0673.1,31.2
2021-07-04T01:41:00Z,00000200,00000000,0000.73,0000.18,0000.47,-000.74,0000.14,0000.41,0000.45,-000.08,0000.12,19.1,25.3,06.1,04.2,0673.2,31.2
2021-07-04T01:42:00Z,00000200,00000000,0000.47,0000.42,0000.37,-000.24,0000.12,0000.41,-000.25,0000.09,0000.05,19.2,25.4,06.0,04.1,0673.2,31.2
2021-07-04T01:43:00Z,00000200,00000000,-000.09,0000.56,0000.38,0000.23,-000.05,0000.39,0000.26,-000.05,0000.11,19.3,25.4,05.9,04.1,0673.2,31.2
2021-07-04T01:44:00Z,00000200,00000000,0000.68,0000.17,0000.22,-000.32,0000.08,0000.05,-000.28,0000.22,-000.22,19.3,25.5,05.9,04.1,0673.2,31.2
2021-07-04T01:45:00Z,00000200,00000000,-000.13,0000.56,0000.59,-000.33,-000.02,0000.21,0000.12,0000.02,-000.04,19.3,25.4,05.9,04.1,0673.2,31.2
2021-07-04T01:46:00Z,00000200,00000000,-000.04,0000.70,0000.09,-000.09,-000.01,0000.34,-000.06,-000.13,0000.26,19.2,25.4,05.8,04.0,0673.2,31.1
2021-07-04T01:47:00Z,00000200,00000000,0000.80,0000.25,0000.31,0000.53,0000.29,0000.38,0000.07,-000.10,0000.10,19.2,25.4,05.7,03.9,0673.2,31.1
2021-07-04T01:48:00Z,00000200,00000000,-000.33,0000.34,0000.17,-000.16,0000.24,-000.00,-000.00,0000.11,-000.21,19.1,25.3,05.8,04.0,0673.2,31.1
2021-07-04T01:49:00Z,00000200,00000000,-000.21,0000.49,0000.55,0000.08,-000.21,0000.23,0000.10,-000.55,0000.23,19.0,25.3,05.8,04.0,0673.2,31.1
2021-07-04T01:50:00Z,00000200,00000000,0000.44,0000.43,0000.26,-000.07,-000.10,0000.33,0000.11,0000.52,-000.12,19.0,25.3,05.7,03.9,0673.2,31.1
2021-07-04T01:51:00Z,00000200,00000000,0000.53,0000.13,0000.06,0000.27,-000.03,-000.16,0000.63,0000.22,0000.13,19.0,25.3,05.8,03.9,0673.2,31.1
2021-07-04T01:52:00Z,00000200,00000000,0000.53,0000.22,0000.07,-000.15,0000.09,0000.06,-000.22,0000.41,0000.23,19.0,25.2,05.8,03.9,0673.1,31.1
2021-07-04T01:53:00Z,00000200,00000000,0000.40,0000.52,0000.05,-000.25,0000.09,0000.02,0000.12,-000.21,-000.06,19.0,25.2,05.9,04.0,0673.1,31.1
2021-07-04T01:54:00Z,00000200,00000000,-000.30,0000.32,-000.12,-000.21,-000.24,0000.03,0000.30,0000.31,0000.49,19.0,25.3,06.0,04.1,0673.1,31.1
2021-07-04T01:55:00Z,00000200,00000000,0000.67,0000.17,0000.34,0000.42,-000.09,0000.16,0000.04,0000.13,-000.01,19.1,25.3,06.1,04.1,0673.1,31.2
2021-07-04T01:56:00Z,00000200,00000000,0000.48,0000.53,0000.43,0000.11,0000.33,0000.00,0000.04,0000.62,0000.20,19.2,25.4,06.0,04.2,0673.1,31.2
2021-07-04T01:57:00Z,00000200,40000000,,,,,,,0000.43,0000.09,-000.12,19.3,25.5,05.7,03.9,0673.1,31.2
2021-07-04T01:58:00Z,00000200,60000000,,,,,,,0000.19,-000.28,0000.25,19.1,25.6,06.1,04.1,0672.1,31.2
2021-07-04T01:59:00Z,00000200,20000000,,,,,,,-000.30,-000.49,-000.52,19.1,25.7,06.1,04.1,0672.1,31.2
